EW4696 Weather Reports


Display with metric or nautical units.
time (UTC)temp
F
wind
direction
speed
MPH
gust
MPH
rain 1hr
in
rain 24hr
in
rain mn
in
humidity
%
barometer
mb
20260905150504 86 186 1.0 3.0 0.00 0.00 0.00 75 1016.0
20260905150003 86 186 1.0 2.0 0.00 0.00 0.00 76 1016.0
20260905145503 85 186 1.0 3.0 0.00 0.00 0.00 78 1015.9
20260905145004 85 186 1.0 3.0 0.00 0.00 0.00 78 1015.9
20260905144503 84 0 0.0 4.0 0.00 0.00 0.00 79 1015.9
20260905144003 84 194 1.0 5.0 0.00 0.00 0.00 80 1015.8
20260905143504 84 211 1.0 5.0 0.00 0.00 0.00 81 1016.0
20260905143003 83 209 1.0 5.0 0.00 0.00 0.00 82 1015.9
20260905142504 83 194 1.0 5.0 0.00 0.00 0.00 83 1015.8
20260905142004 82 186 1.0 3.0 0.00 0.00 0.00 84 1015.8
20260905141003 81 203 1.0 7.0 0.00 0.00 0.00 86 1015.7
20260905140004 80 210 1.0 4.0 0.00 0.00 0.00 88 1015.6
20260905134503 79 210 1.0 4.0 0.00 0.00 0.00 90 1015.5
20260905134004 79 0 0.0 2.0 0.00 0.00 0.00 90 1015.5
20260905133503 79 0 0.0 4.0 0.00 0.00 0.00 90 1015.5
20260905133003 79 0 0.0 4.0 0.00 0.00 0.00 89 1015.4
20260905132504 78 0 0.0 0.0 0.00 0.00 0.00 89 1015.4
20260905132004 78 0 0.0 0.0 0.00 0.00 0.00 89 1015.2
20260905131504 78 0 0.0 0.0 0.00 0.00 0.00 89 1015.2
20260905130004 77 0 0.0 0.0 0.00 0.00 0.00 89 1015.0
20260905125503 76 0 0.0 0.0 0.00 0.00 0.00 89 1015.0
20260905125003 76 0 0.0 0.0 0.00 0.00 0.00 89 1014.9
20260905124503 76 0 0.0 0.0 0.00 0.00 0.00 89 1014.9
20260905124004 76 0 0.0 0.0 0.00 0.00 0.00 90 1014.9
20260905123503 76 0 0.0 0.0 0.00 0.00 0.00 90 1014.8
20260905123003 76 0 0.0 0.0 0.00 0.00 0.00 90 1014.7
20260905122504 76 0 0.0 0.0 0.00 0.00 0.00 90 1014.7
20260905121503 76 0 0.0 0.0 0.00 0.00 0.00 90 1014.7
20260905121003 76 0 0.0 0.0 0.00 0.00 0.00 90 1014.7
20260905120504 76 0 0.0 0.0 0.00 0.00 0.00 90 1014.6
20260905115503 76 0 0.0 0.0 0.00 0.00 0.00 90 1014.5
20260905115003 76 0 0.0 0.0 0.00 0.00 0.00 90 1014.5
20260905114004 76 0 0.0 0.0 0.00 0.00 0.00 90 1014.5
20260905113503 76 0 0.0 0.0 0.00 0.00 0.00 90 1014.4
20260905113003 76 0 0.0 0.0 0.00 0.00 0.00 90 1014.4
20260905112504 76 0 0.0 0.0 0.00 0.00 0.00 90 1014.4
20260905112004 76 0 0.0 0.0 0.00 0.00 0.00 90 1014.4
20260905111503 76 0 0.0 0.0 0.00 0.00 0.00 90 1014.4
20260905110504 76 0 0.0 0.0 0.00 0.00 0.00 90 1014.2
20260905110004 76 0 0.0 0.0 0.00 0.00 0.00 90 1014.2
20260905105503 77 0 0.0 0.0 0.00 0.00 0.00 90 1014.1
20260905104004 77 0 0.0 0.0 0.00 0.00 0.00 90 1014.2
20260905103504 77 0 0.0 0.0 0.00 0.00 0.00 90 1014.2
20260905103003 77 0 0.0 0.0 0.00 0.00 0.00 90 1014.2
20260905102503 77 0 0.0 0.0 0.00 0.00 0.00 90 1014.2
20260905101503 77 0 0.0 0.0 0.00 0.00 0.00 90 1014.2
20260905101003 77 0 0.0 0.0 0.00 0.00 0.00 90 1014.2
20260905100503 77 0 0.0 0.0 0.00 0.00 0.00 90 1014.1
20260905100004 78 0 0.0 0.0 0.00 0.00 0.00 90 1014.1
20260905095003 78 0 0.0 1.0 0.00 0.00 0.00 90 1014.0
20260905094503 78 0 0.0 0.0 0.00 0.00 0.00 89 1014.0
20260905094004 78 0 0.0 1.0 0.00 0.00 0.00 89 1014.1
20260905093003 78 0 0.0 0.0 0.00 0.00 0.00 89 1014.0
20260905092503 78 0 0.0 2.0 0.00 0.00 0.00 89 1014.1
20260905092004 78 0 0.0 2.0 0.00 0.00 0.00 89 1014.0
20260905091504 78 0 0.0 1.0 0.00 0.00 0.00 89 1014.1
20260905091003 78 0 0.0 1.0 0.00 0.00 0.00 89 1014.0
20260905090003 78 0 0.0 1.0 0.00 0.00 0.00 89 1014.1
20260905085504 78 0 0.0 2.0 0.00 0.00 0.00 89 1014.2
20260905084503 78 0 0.0 3.0 0.00 0.00 0.00 88 1014.1
20260905084003 78 0 0.0 2.0 0.00 0.00 0.00 88 1014.1
20260905082003 79 0 0.0 4.0 0.00 0.00 0.00 88 1014.3
20260905081503 79 212 1.0 4.0 0.00 0.00 0.00 88 1014.3
20260905081004 79 0 0.0 4.0 0.00 0.00 0.00 88 1014.3
20260905080504 79 225 1.0 4.0 0.00 0.00 0.00 88 1014.3
20260905080003 79 218 1.0 4.0 0.00 0.00 0.00 88 1014.4
20260905075503 79 206 1.0 5.0 0.00 0.00 0.00 87 1014.3
20260905075004 79 0 0.0 5.0 0.00 0.00 0.00 87 1014.5
20260905074503 79 0 0.0 4.0 0.00 0.00 0.00 87 1014.4
20260905074003 79 0 0.0 4.0 0.00 0.00 0.00 87 1014.5
20260905073503 79 0 0.0 4.0 0.00 0.00 0.00 87 1014.4
20260905073004 80 0 0.0 1.0 0.00 0.00 0.00 87 1014.6
20260905072503 80 0 0.0 1.0 0.00 0.00 0.00 86 1014.6
20260905072003 80 0 0.0 2.0 0.00 0.00 0.00 86 1014.6
20260905071503 80 0 0.0 2.0 0.00 0.00 0.00 86 1014.7
20260905071004 80 0 0.0 2.0 0.00 0.00 0.00 86 1014.7
20260905070503 80 0 0.0 3.0 0.00 0.00 0.00 86 1014.7
20260905070003 80 0 0.0 4.0 0.00 0.00 0.00 85 1014.7
20260905065004 80 0 0.0 3.0 0.00 0.00 0.00 85 1014.6
20260905064003 80 0 0.0 6.0 0.00 0.00 0.00 84 1014.7
20260905063503 80 0 0.0 4.0 0.00 0.00 0.00 84 1014.8
20260905063004 80 0 0.0 3.0 0.00 0.00 0.00 84 1014.7
20260905062503 80 0 0.0 3.0 0.00 0.00 0.00 83 1014.8
20260905062003 80 0 0.0 3.0 0.00 0.00 0.00 83 1014.8
20260905061503 80 0 0.0 3.0 0.00 0.00 0.00 83 1014.9
20260905061004 80 0 0.0 3.0 0.00 0.00 0.00 83 1014.9
20260905060503 80 0 0.0 3.0 0.00 0.00 0.00 83 1014.9
20260905060003 80 0 0.0 2.0 0.00 0.00 0.00 82 1014.8
20260905055504 80 0 0.0 1.0 0.00 0.00 0.00 82 1014.7
20260905055003 80 0 0.0 2.0 0.00 0.00 0.00 82 1014.8
20260905054503 81 0 0.0 2.0 0.00 0.00 0.00 81 1014.9
20260905053003 80 0 0.0 3.0 0.00 0.00 0.00 81 1014.8
20260905052503 81 0 0.0 3.0 0.00 0.00 0.00 80 1014.9
20260905051504 81 0 0.0 3.0 0.00 0.00 0.00 80 1015.0
20260905050503 81 0 0.0 4.0 0.00 0.00 0.00 79 1014.9
20260905045504 81 0 0.0 5.0 0.00 0.00 0.00 79 1015.0
20260905045004 81 0 0.0 3.0 0.00 0.00 0.00 78 1014.9
20260905044503 81 0 0.0 3.0 0.00 0.00 0.00 78 1014.9
20260905044003 81 0 0.0 2.0 0.00 0.00 0.00 78 1014.9
20260905043504 81 105 1.0 3.0 0.00 0.00 0.00 78 1015.0
20260905043003 81 0 0.0 3.0 0.00 0.00 0.00 78 1014.9
20260905042503 81 0 0.0 2.0 0.00 0.00 0.00 77 1014.8
20260905042004 81 0 0.0 2.0 0.00 0.00 0.00 77 1014.9
20260905041505 81 0 0.0 4.0 0.00 0.00 0.00 77 1014.8
20260905041004 82 0 0.0 4.0 0.00 0.00 0.00 76 1014.8
20260905035505 82 0 0.0 3.0 0.00 0.00 0.00 76 1014.7
20260905034504 82 0 0.0 4.0 0.00 0.00 0.00 75 1014.8
20260905034004 82 0 0.0 4.0 0.00 0.00 0.00 74 1014.8
20260905033505 82 0 0.0 4.0 0.00 0.00 0.00 74 1014.8
20260905033004 82 0 0.0 2.0 0.00 0.00 0.00 74 1014.8
20260905032005 82 0 0.0 3.0 0.00 0.00 0.00 74 1014.7
20260905031505 82 0 0.0 1.0 0.00 0.00 0.00 74 1014.7
20260905031004 82 0 0.0 0.0 0.00 0.00 0.00 74 1014.6
20260905030504 82 0 0.0 2.0 0.00 0.00 0.00 74 1014.6
20260905030005 82 0 0.0 2.0 0.00 0.00 0.00 75 1014.5
20260905025504 82 0 0.0 1.0 0.00 0.00 0.00 75 1014.4
20260905025004 83 0 0.0 1.0 0.00 0.00 0.00 75 1014.4
20260905023504 83 0 0.0 2.0 0.00 0.00 0.00 74 1014.4
20260905022504 83 0 0.0 2.0 0.00 0.00 0.00 73 1014.2
20260905022005 84 0 0.0 2.0 0.00 0.00 0.00 73 1014.1
20260905021505 84 0 0.0 2.0 0.00 0.00 0.00 73 1014.0
20260905021004 84 0 0.0 2.0 0.00 0.00 0.00 73 1013.9
20260905020504 84 0 0.0 2.0 0.00 0.00 0.00 73 1013.9
20260905020005 84 0 0.0 1.0 0.00 0.00 0.00 72 1013.9
20260905015504 84 0 0.0 2.0 0.00 0.00 0.00 72 1013.9
20260905014504 84 0 0.0 3.0 0.00 0.00 0.00 71 1013.8
20260905014005 84 0 0.0 3.0 0.00 0.00 0.00 71 1013.8
20260905013504 85 0 0.0 3.0 0.00 0.00 0.00 70 1013.8
20260905013004 85 0 0.0 3.0 0.00 0.00 0.00 70 1013.9
20260905012504 85 0 0.0 2.0 0.00 0.00 0.00 70 1013.7
20260905012005 85 0 0.0 2.0 0.00 0.00 0.00 69 1013.6
20260905011504 85 0 0.0 2.0 0.00 0.00 0.00 69 1013.6
20260905011004 86 0 0.0 4.0 0.00 0.00 0.00 68 1013.6
20260905010505 86 0 0.0 4.0 0.00 0.00 0.00 67 1013.5
20260905005504 86 0 0.0 3.0 0.00 0.00 0.00 65 1013.5
20260905004504 86 0 0.0 3.0 0.00 0.00 0.00 65 1013.3
20260905004005 86 0 0.0 2.0 0.00 0.00 0.00 65 1013.2
20260905003504 87 0 0.0 2.0 0.00 0.00 0.00 65 1013.0
20260905003004 87 98 1.0 3.0 0.00 0.00 0.00 65 1013.0
20260905002505 87 97 1.0 5.0 0.00 0.00 0.00 65 1013.0
20260905002004 87 95 1.0 5.0 0.00 0.00 0.00 65 1013.1
20260905001505 87 100 2.0 8.0 0.00 0.00 0.00 66 1013.0
20260905001004 88 105 2.0 8.0 0.00 0.00 0.00 66 1013.0
20260904235004 88 99 3.0 7.0 0.00 0.00 0.00 64 1012.9
20260904234504 89 105 2.0 9.0 0.00 0.00 0.00 63 1012.8
20260904234005 89 108 2.0 9.0 0.00 0.00 0.00 63 1012.8
20260904233004 89 93 3.0 8.0 0.00 0.00 0.00 62 1012.7
20260904232504 90 102 3.0 9.0 0.00 0.00 0.00 61 1012.7
20260904232005 90 106 3.0 9.0 0.00 0.00 0.00 60 1012.8
20260904231504 91 104 3.0 9.0 0.00 0.00 0.00 59 1012.7
20260904231004 92 110 3.0 9.0 0.00 0.00 0.00 58 1012.8
20260904230005 93 119 2.0 6.0 0.00 0.00 0.00 50 1012.8
20260904225504 93 137 1.0 5.0 0.00 0.00 0.00 48 1012.8
20260904225004 93 147 1.0 5.0 0.00 0.00 0.00 47 1012.7
20260904224505 93 168 1.0 5.0 0.00 0.00 0.00 45 1012.8
20260904224004 94 194 1.0 4.0 0.00 0.00 0.00 45 1012.7
20260904223504 94 184 1.0 5.0 0.00 0.00 0.00 46 1012.8
20260904223004 94 158 1.0 5.0 0.00 0.00 0.00 47 1012.9
20260904222005 93 161 1.0 5.0 0.00 0.00 0.00 48 1012.8
20260904221505 94 178 1.0 4.0 0.00 0.00 0.00 48 1012.7
20260904221004 93 174 1.0 4.0 0.00 0.00 0.00 48 1012.8
20260904220505 93 165 1.0 4.0 0.00 0.00 0.00 48 1012.8
20260904220004 93 145 1.0 6.0 0.00 0.00 0.00 47 1013.0
20260904215005 94 155 1.0 4.0 0.00 0.00 0.00 48 1013.1
20260904214504 94 136 1.0 4.0 0.00 0.00 0.00 46 1013.2
20260904214004 94 118 1.0 4.0 0.00 0.00 0.00 45 1013.3
20260904213504 94 132 2.0 4.0 0.00 0.00 0.00 41 1013.3
20260904213004 94 159 2.0 4.0 0.00 0.00 0.00 44 1013.4
20260904212505 93 175 2.0 5.0 0.00 0.00 0.00 47 1013.5
20260904212004 93 186 1.0 5.0 0.00 0.00 0.00 49 1013.5
20260904211504 93 192 1.0 5.0 0.00 0.00 0.00 50 1013.5
20260904211005 93 200 1.0 5.0 0.00 0.00 0.00 53 1013.6
20260904210504 92 218 1.0 4.0 0.00 0.00 0.00 52 1013.6
20260904210004 92 219 2.0 5.0 0.00 0.00 0.00 52 1013.8
20260904205505 92 83 2.0 5.0 0.00 0.00 0.00 51 1013.7
20260904205004 91 73 1.0 4.0 0.00 0.00 0.00 50 1013.9
20260904204504 91 79 1.0 8.0 0.00 0.00 0.00 53 1014.0
20260904204004 91 88 1.0 8.0 0.00 0.00 0.00 52 1014.0
20260904203505 91 132 1.0 5.0 0.00 0.00 0.00 52 1014.0
20260904203004 91 147 1.0 5.0 0.00 0.00 0.00 52 1014.1
20260904202004 90 71 1.0 8.0 0.00 0.00 0.00 57 1014.4
20260904201505 90 0 0.0 0.0 0.00 0.00 0.00 56 1014.4
20260904201004 90 0 0.0 0.0 0.00 0.00 0.00 61 1014.4
20260904200004 90 0 0.0 0.0 0.00 0.00 0.00 60 1014.5
20260904195505 90 0 0.0 0.0 0.00 0.00 0.00 63 1014.5
20260904194504 88 0 0.0 0.0 0.00 0.00 0.00 69 1014.7
20260904193504 87 0 0.0 0.0 0.00 0.00 0.00 72 1014.8
20260904193004 86 0 0.0 0.0 0.00 0.00 0.00 74 1014.8
20260904192504 86 0 0.0 0.0 0.00 0.00 0.00 74 1014.9
20260904191005 87 0 0.0 0.0 0.00 0.00 0.00 73 1015.1
20260904190504 87 0 0.0 0.0 0.00 0.00 0.00 72 1015.2
20260904190004 87 0 0.0 0.0 0.00 0.00 0.00 72 1015.2
20260904185004 87 0 0.0 0.0 0.00 0.00 0.00 71 1015.3
20260904184504 87 0 0.0 0.0 0.00 0.00 0.00 71 1015.3
20260904184004 87 0 0.0 0.0 0.00 0.00 0.00 71 1015.4
20260904183505 87 0 0.0 0.0 0.00 0.00 0.00 72 1015.5
20260904183004 87 0 0.0 0.0 0.00 0.00 0.00 73 1015.6
20260904182504 87 0 0.0 0.0 0.00 0.00 0.00 74 1015.5
20260904182004 87 0 0.0 0.0 0.00 0.00 0.00 73 1015.5
20260904181505 87 0 0.0 0.0 0.00 0.00 0.00 73 1015.5
20260904180504 88 0 0.0 0.0 0.00 0.00 0.00 72 1015.7
20260904180004 88 0 0.0 0.0 0.00 0.00 0.00 71 1015.7
20260904175505 88 0 0.0 0.0 0.00 0.00 0.00 71 1015.7
20260904174504 87 0 0.0 0.0 0.00 0.00 0.00 72 1015.9
20260904174004 87 0 0.0 0.0 0.00 0.00 0.00 73 1015.9
20260904173505 87 0 0.0 0.0 0.00 0.00 0.00 72 1016.0
20260904173004 87 0 0.0 0.0 0.00 0.00 0.00 74 1015.9
20260904172004 86 0 0.0 0.0 0.00 0.00 0.00 76 1016.0
20260904171505 86 0 0.0 0.0 0.00 0.00 0.00 76 1016.0
20260904171004 86 0 0.0 0.0 0.00 0.00 0.00 76 1016.1
20260904170504 86 0 0.0 0.0 0.00 0.00 0.00 76 1016.1
20260904170005 85 0 0.0 0.0 0.00 0.00 0.00 76 1016.2
20260904165504 85 0 0.0 0.0 0.00 0.00 0.00 76 1016.1
20260904165004 85 0 0.0 0.0 0.00 0.00 0.00 78 1016.1
20260904164504 85 0 0.0 0.0 0.00 0.00 0.00 78 1016.0
20260904164005 84 0 0.0 0.0 0.00 0.00 0.00 79 1015.9
20260904163504 84 0 0.0 0.0 0.00 0.00 0.00 79 1016.0
20260904163004 84 0 0.0 0.0 0.00 0.00 0.00 79 1016.0
20260904162504 84 0 0.0 0.0 0.00 0.00 0.00 79 1016.0
20260904162005 84 0 0.0 0.0 0.00 0.00 0.00 80 1016.0
20260904161504 84 0 0.0 0.0 0.00 0.00 0.00 80 1016.0
20260904161004 83 0 0.0 0.0 0.00 0.00 0.00 82 1015.9
20260904160005 83 0 0.0 0.0 0.00 0.00 0.00 83 1015.9
20260904155504 82 0 0.0 0.0 0.00 0.00 0.00 84 1015.9
20260904155004 82 0 0.0 0.0 0.00 0.00 0.00 84 1015.8
20260904154504 82 0 0.0 0.0 0.00 0.00 0.00 84 1015.8
20260904154005 82 0 0.0 0.0 0.00 0.00 0.00 85 1015.8
20260904153504 82 0 0.0 0.0 0.00 0.00 0.00 85 1015.9
20260904153004 82 0 0.0 0.0 0.00 0.00 0.00 85 1015.7
20260904152504 82 0 0.0 0.0 0.00 0.00 0.00 86 1015.7
20260904151504 81 0 0.0 0.0 0.00 0.00 0.00 86 1015.6
20260904151004 81 0 0.0 0.0 0.00 0.00 0.00 86 1015.7